This is the latest recevied weather packets stored in our database for station/object DG7FDL-7. If no packets are shown the sender has not sent any weather packets the latest 10 day(s).
| Time | Temp. | Humidity | Pressure | Rain* | Wind** | Luminosity | Snow |
|---|---|---|---|---|---|---|---|
| 1777646120 | 22.78° C | 31% | 1026.3 hPa | - | - | - | - |
| 1777644320 | 22.78° C | 31% | 1026.7 hPa | - | - | - | - |
| 1777643421 | 22.78° C | 32% | 1026.8 hPa | - | - | - | - |
| 1777642523 | 22.78° C | 31% | 1027 hPa | - | - | - | - |
| 1777640720 | 22.22° C | 31% | 1027.3 hPa | - | - | - | - |
| 1777639827 | 22.22° C | 32% | 1027.5 hPa | - | - | - | - |
| 1777638920 | 22.22° C | 32% | 1027.8 hPa | - | - | - | - |
| 1777638021 | 22.22° C | 32% | 1027.9 hPa | - | - | - | - |
| 1777637539 | 22.22° C | 32% | 1028 hPa | - | - | - | - |
| 1777636648 | 21.67° C | 33% | 1028.1 hPa | - | - | - | - |
| 1777635736 | 21.11° C | 35% | 1028.3 hPa | - | - | - | - |
| 1777635306 | 21.11° C | 33% | 1028.2 hPa | - | - | - | - |
| 1777634418 | 20.56° C | 34% | 1028.4 hPa | - | - | - | - |
| 1777633525 | 20.56° C | 33% | 1028.6 hPa | - | - | - | - |
| 1777632605 | 20° C | 34% | 1028.7 hPa | - | - | - | - |
| 1777630810 | 19.44° C | 34% | 1028.9 hPa | - | - | - | - |
| 1777629903 | 20° C | 33% | 1028.9 hPa | - | - | - | - |
| 1777629003 | 20° C | 34% | 1029.1 hPa | - | - | - | - |
| 1777628103 | 20° C | 33% | 1029.3 hPa | - | - | - | - |
| 1777627203 | 20° C | 33% | 1029.2 hPa | - | - | - | - |
| 1777626304 | 20.56° C | 34% | 1029.4 hPa | - | - | - | - |
| 1777625404 | 20.56° C | 34% | 1029.3 hPa | - | - | - | - |
| 1777623627 | 20.56° C | 34% | 1029.5 hPa | - | - | - | - |
| 1777622703 | 20° C | 34% | 1029.7 hPa | - | - | - | - |
| 1777620902 | 18.89° C | 34% | 1029.8 hPa | - | - | - | - |
* Rain since midnight (hover to see other rain measurements)
** Current wind speed in m/s (hover to see current wind gust speed)